Regional Weather Roundup
Issued by NWS

Home | Current Version | Previous Version | Graphics & Text | Print | Product List | Glossary On
Versions: 1 2 3 4 5 6 7 8 9 10 11 12 13 14 15 16 17 18 19 20 21 22 23 24 25 26 27 28 29 30 31 32 33 34 35 36 37 38 39 40 41 42 43 44 45 46 47 48 49 50
000
ASUS43 KDTX 290201
RWRMI
MICHIGAN HOURLY REGIONAL WEATHER ROUNDUP
NATIONAL WEATHER SERVICE DETROIT/PONTIAC MI
1000 PM EDT THU JUL 28 2016

NOTE: "FAIR" INDICATES FEW OR NO CLOUDS BELOW 12,000 FEET WITH NO
SIGNIFICANT WEATHER AND/OR OBSTRUCTION TO VISIBILITY.

MIZ047>049-052>055-059>063-066>070-074>076-081>083-290300-
SOUTHEAST LOWER MICHIGAN

CITY           SKY/WX    TMP DP  RH WIND       PRES   REMARKS
ADRIAN         LGT RAIN  70  66  87 E17       29.92S
ALMA           CLOUDY    72  65  78 NE6       29.94S
ANN ARBOR      CLOUDY    75  66  73 S7        29.92R
BAD AXE        CLEAR     67  63  87 NE6       29.96S
CARO           CLEAR     67  62  82 CALM      29.95R
DETROIT CITY   PTCLDY    75  62  64 NE8       29.93R
DETROIT        MOCLDY    79  62  56 E7        29.92R
FLINT          PTCLDY    78  61  55 NE13      29.93S
GROSSE ILE     PTCLDY    77  65  65 NE8       29.91R
HILLSDALE      MOCLDY    72  65  79 CALM      29.90F
HOWELL         MOCLDY    72  66  81 NE3       29.92F

CITY           SKY/WX    TMP DP  RH WIND       PRES   REMARKS
JACKSON        MOCLDY    73  63  70 E10       29.90F
LAMBERTVILLE   PTCLDY    77  71  80 N3        29.92R
LANSING        CLOUDY    71  64  78 NE12      29.92F
LAPEER         FAIR      71  61  70 N5        29.95R
MASON          CLOUDY    71  62  75 NE5       29.91F
MONROE         MOCLDY    76  69  79 E3        29.91R
PONTIAC        MOCLDY    75  60  59 NE9       29.93R
PORT HOPE        N/A     72  65  78 N12       29.95S
PORT HURON     PTCLDY    70  64  83 VRB6      29.94S
TRI CITIES     PTCLDY    70  65  84 NE7       29.95S
MIDLAND        FAIR      70  63  79 NE3       29.94F
TROY           PTCLDY    78  58  48 NE7       29.95R
SAGINAW HB     CLEAR     70  63  78 NE8       29.93F
$$
MIZ043>046-050>051-056>058-064>065-071>073-077>080-290300-
SOUTHWEST LOWER MICHIGAN

CITY           SKY/WX    TMP DP  RH WIND       PRES   REMARKS
BATTLE CREEK   MOCLDY    68  68 100 N6        29.92R
BENTON HARBOR  MOCLDY    72  65  78 CALM      29.91R
BIG RAPIDS     CLOUDY    68  68 100 CALM      29.94F
COLDWATER      CLOUDY    74  68  81 N3        29.90R
FREMONT        FAIR      66  66 100 N3        29.95R
HOLLAND        PTCLDY    71  68  90 CALM      29.93R
GRAND RAPIDS   MOCLDY    69  64  84 N6        29.94R
IONIA          FAIR      73  61  66 N8        29.92R
KALAMAZOO      PTCLDY    70  65  84 N5        29.92R
LUDINGTON      MOCLDY    70  65  84 NE3       29.94R
MARSHALL       PTCLDY    75  65  71 CALM      29.90R
MOUNT PLEASANT CLOUDY    72  64  75 E6        29.95R
MUSKEGON       MOCLDY    70  65  84 NE6       29.94R
SOUTH HAVEN    PTCLDY    67  66  96 CALM      29.92R
$$
MIZ016>042-290300-
NORTHERN LOWER MICHIGAN

CITY           SKY/WX    TMP DP  RH WIND       PRES   REMARKS
ALPENA         CLOUDY    65  60  84 CALM      29.99R
BEAVER ISLAND  MOCLDY    65  55  70 NE9       30.03R
BELLAIRE       PTCLDY    69  58  68 CALM      29.98R
CADILLAC       CLOUDY    68  61  77 N5        29.97F
CHARLEVOIX     MOCLDY    72  62  72 N8        30.03R
FRANKFORT      CLOUDY    72  60  65 N3        29.97S
GAYLORD        CLOUDY    70  54  56 NE6       30.02R
GRAYLING       MOCLDY    71  59  64 NE5       30.00R
HARBOR SPRINGS MOCLDY    70  57  63 N8        30.00R
HOUGHTON LAKE  MOCLDY    70  63  78 NE6       29.99R
MANISTEE       MOCLDY    72  62  71 NE6       29.95R
OSCODA         PTCLDY    68  59  71 N6        29.97R
PELLSTON       CLOUDY    69  55  60 N9        30.01R
ROGERS CITY    CLEAR     65  60  82 CALM      30.01R
TRAVERSE CITY  CLOUDY    76  60  57 NE7       29.95R
$$
MIZ007>008-015-290300-
EASTERN UPPER MICHIGAN

CITY           SKY/WX    TMP DP  RH WIND       PRES   REMARKS
KINROSS        CLEAR     63  56  78 N9        30.02S
MACKINAC ISLAN CLOUDY    65  54  66 N7        30.01S
S. S. MARIE    CLEAR     64  58  80 NW5       30.01S
$$
MIZ004>006-011>014-085-290300-
CENTRAL UPPER MICHIGAN

CITY           SKY/WX    TMP DP  RH WIND       PRES   REMARKS
MANISTIQUE     PTCLDY    61  55  82 N10       30.03R
ESCANABA       PTCLDY    63  52  67 N5        30.03R
MENOMINEE        N/A    N/A N/A N/A MISG        N/A
SAWYER-GWINN   CLEAR     55  52  88 N6        30.06F
$$
MIZ001>003-009>011-084-290300-
WESTERN UPPER MICHIGAN

CITY           SKY/WX    TMP DP  RH WIND       PRES   REMARKS
IRON MOUNTAIN  CLOUDY    62  51  67 NE5       30.05R
HOUGHTON       PTCLDY    57  53  86 CALM      30.08S
COPPER HARBOR    N/A     62  55  77 NW3       30.07S
IRONWOOD       PTCLDY    61  52  72 SE3       30.07R
$$

ABBREVIATIONS USED IN REMARKS
   TC - TEMPERATURE IN CELSIUS
  WCI - WIND CHILL INDEX
   HX - HEAT INDEX
  VSB - VISIBILITY





USA.gov is the U.S. government's official web portal to all federal, state and local government web resources and services.